EW1895 Weather Reports


Display with metric or nautical units.
time (UTC)temp
F
wind
direction
speed
MPH
gust
MPH
rain 1hr
in
rain 24hr
in
rain mn
in
humidity
%
barometer
mb
20260503000100 56 113 0.0 0.0 0.00 0.00 0.00 57 1012.7
20260502234545 57 113 0.0 0.0 0.00 0.00 0.00 53 1012.3
20260502231544 59 113 0.0 0.0 0.00 0.00 0.00 50 1012.0
20260502230036 59 113 0.0 0.0 0.00 0.00 0.00 49 1011.8
20260502224534 59 113 0.0 0.0 0.00 0.00 0.00 47 1011.7
20260502221534 60 88 0.0 0.0 0.00 0.00 0.00 45 1011.8
20260502220028 61 88 0.0 3.0 0.00 0.00 0.00 41 1011.9
20260502214527 62 62 0.0 3.0 0.00 0.00 0.00 42 1011.9
20260502211526 63 154 0.0 4.0 0.00 0.00 0.00 37 1011.9
20260502210025 64 57 0.0 3.0 0.00 0.00 0.00 37 1011.7
20260502204526 64 346 0.0 4.0 0.00 0.00 0.00 36 1011.9
20260502201624 64 346 0.0 3.0 0.00 0.00 0.00 37 1012.1
20260502200024 66 346 0.0 4.0 0.00 0.00 0.00 36 1011.9
20260502194524 65 346 0.0 3.0 0.00 0.00 0.00 36 1012.1
20260502191523 63 11 1.0 5.0 0.00 0.00 0.00 39 1012.5
20260502190027 62 171 0.0 4.0 0.00 0.00 0.00 40 1012.6
20260502184522 64 347 0.0 1.0 0.00 0.00 0.00 38 1012.8
20260502181521 64 305 0.0 6.0 0.00 0.00 0.00 38 1013.2
20260502161519 57 350 0.0 3.0 0.00 0.00 0.00 46 1014.8
20260502151516 56 340 0.0 4.0 0.00 0.00 0.00 49 1015.0
20260502121505 50 349 1.0 4.0 0.00 0.00 0.00 71 1014.2
20260502114504 49 327 0.0 0.0 0.00 0.00 0.00 78 1014.0
20260502111502 49 326 0.0 1.0 0.00 0.00 0.00 81 1014.1
20260502110002 48 15 0.0 5.0 0.00 0.00 0.00 82 1014.2
20260502104500 48 346 0.0 3.0 0.00 0.00 0.00 84 1014.0
20260502101604 47 5 0.0 0.0 0.00 0.00 0.00 87 1013.7
20260502070045 49 234 0.0 0.0 0.00 0.00 0.00 84 1012.7
20260502064546 50 234 0.0 0.0 0.00 0.00 0.00 83 1012.8
20260502061539 51 234 0.0 0.0 0.00 0.00 0.00 81 1012.9
20260502060037 52 234 0.0 0.0 0.00 0.00 0.00 80 1012.9
20260502054535 52 234 0.0 0.0 0.00 0.00 0.00 79 1013.1
20260502051534 53 234 0.0 0.0 0.00 0.00 0.00 76 1013.1
20260502050034 54 234 0.0 0.0 0.00 0.00 0.00 74 1012.8
20260502044526 54 203 0.0 0.0 0.00 0.00 0.00 73 1012.8
20260502041527 55 248 0.0 1.0 0.00 0.00 0.00 71 1012.8
20260502040022 55 255 0.0 5.0 0.00 0.00 0.00 70 1012.8
20260502034522 56 181 0.0 1.0 0.00 0.00 0.00 69 1012.7
20260502031517 56 138 0.0 0.0 0.00 0.00 0.00 67 1012.6
20260502030024 57 138 0.0 1.0 0.00 0.00 0.00 65 1012.4
20260502024513 57 164 0.0 4.0 0.00 0.00 0.00 64 1012.2
20260502021511 57 182 0.0 2.0 0.00 0.00 0.00 60 1012.3
20260502020008 57 197 0.0 0.0 0.00 0.00 0.00 58 1012.2
20260502014506 58 198 0.0 1.0 0.00 0.00 0.00 57 1012.2
20260502011600 59 204 0.0 0.0 0.00 0.00 0.00 55 1011.8
20260502010106 59 204 0.0 1.0 0.00 0.00 0.00 55 1011.7
20260502004604 59 215 0.0 1.0 0.00 0.00 0.00 54 1011.4
20260502003151 60 201 0.0 0.0 0.00 0.00 0.00 53 1011.0
20260502001548 61 140 0.0 0.0 0.00 0.00 0.00 50 1011.1